Weather History for Lewistown, MT

Change the Weather History Date:

Wednesday, November 5, 2014

  Actual Average Record
Temperature  
Mean Temperature 45 °F 36 °F  
Max Temperature 57 °F 48 °F 78 °F (1975)
Min Temperature 33 °F 25 °F -4 °F (2003)
Degree Days  
Heating Degree Days 20 29  
Month to date heating degree days 105 139  
Since 1 July heating degree days 887 1277  
Cooling Degree Days 0 0  
Month to date cooling degree days 0 0  
Year to date cooling degree days 295 210  
Moisture  
Dew Point 35 °F    
Average Humidity 64    
Maximum Humidity 89    
Minimum Humidity 38    
Precipitation  
Precipitation 0.08 in 0.02 in 0.43 in (2008)
Month to date precipitation 0.12 0.12  
Year to date precipitation 17.55 15.60  
Snow  
Snow 0.00 in - - ()
Snow Depth 0.00 in    
Sea Level Pressure  
Sea Level Pressure 30.23 in    
Wind  
Wind Speed 8 mph (West)    
Max Wind Speed 18 mph    
Max Gust Speed 26 mph    
Visibility 10 miles    
Events Rain    
T = Trace of Precipitation, MM = Missing Value Source: NWS Daily Summary

Daily Weather History Graph

Daily Weather History Graph

Search for Another Location

Airport:

Trip Planner

Search our weather history database for the weather conditions in past years. The results will help you decide how hot, cold, wet, or windy it might be!

Date:

Astronomy

Nov. 05, 2014 Rise Set
Actual Time 7:06 AM MST 4:55 PM MST
Civil Twilight 6:34 AM MST 5:27 PM MST
Nautical Twilight 5:58 AM MST 6:04 PM MST
Astronomical Twilight 5:22 AM MST 6:39 PM MST
Moon 4:28 PM MST (11/5) 5:29 AM MST (11/5)
Length of Visible Light 10h 53m
Length of Day
9h 48m
Waxing Gibbous, 98% of the Moon is Illuminated
Nov 5
Waxing Gibbous
Nov 6
Full
Nov 14
Last Quarter
Nov 22
New
Nov 29
First Quarter

Hourly Weather History & Observations

Time (MST) Temp. Windchill Dew Point Humidity Pressure Visibility Wind Dir Wind Speed Gust Speed Precip Events Conditions
12:54 AM 42.1 °F 34.5 °F 37.0 °F 82% 30.07 in 10.0 mi NW 15.0 mph 26.5 mph 0.02 in Rain Light Rain
1:54 AM 42.1 °F 36.1 °F 37.0 °F 82% 30.10 in 10.0 mi West 10.4 mph - 0.00 in   Overcast
2:54 AM 42.1 °F 36.6 °F 37.9 °F 85% 30.12 in 10.0 mi WNW 9.2 mph - 0.00 in Rain Light Rain
3:50 AM 42.8 °F 37.0 °F 39.2 °F 87% 30.14 in 9.0 mi WNW 10.4 mph - 0.04 in Rain Light Rain
3:54 AM 42.1 °F 35.7 °F 39.0 °F 89% 30.14 in 10.0 mi WNW 11.5 mph 19.6 mph 0.04 in Rain Light Rain
4:24 AM 41.0 °F 34.7 °F 39.0 °F 93% 30.16 in 10.0 mi WNW 10.4 mph - 0.01 in Rain Light Rain
4:35 AM 41.0 °F 35.2 °F 37.9 °F 89% 30.16 in 10.0 mi WNW 9.2 mph - 0.01 in   Mostly Cloudy
4:44 AM 41.0 °F 35.8 °F 37.9 °F 89% 30.16 in 10.0 mi West 8.1 mph - 0.01 in   Mostly Cloudy
4:54 AM 39.9 °F 34.5 °F 37.0 °F 89% 30.17 in 10.0 mi West 8.1 mph - 0.01 in   Scattered Clouds
5:54 AM 41.0 °F 38.0 °F 37.9 °F 89% 30.20 in 10.0 mi West 4.6 mph - 0.00 in Rain Light Rain
6:54 AM 39.9 °F 35.8 °F 36.0 °F 86% 30.24 in 10.0 mi West 5.8 mph - 0.01 in Rain Light Rain
7:54 AM 39.0 °F 32.8 °F 36.0 °F 89% 30.25 in 10.0 mi SW 9.2 mph - 0.00 in   Overcast
8:54 AM 41.0 °F 36.4 °F 37.9 °F 89% 30.26 in 10.0 mi West 6.9 mph - N/A   Overcast
9:54 AM 44.1 °F 40.1 °F 39.0 °F 82% 30.26 in 10.0 mi WSW 6.9 mph - N/A   Partly Cloudy
10:54 AM 48.0 °F - 36.0 °F 63% 30.25 in 10.0 mi West 5.8 mph - N/A   Clear
11:54 AM 50.0 °F - 36.0 °F 59% 30.24 in 10.0 mi SSW 3.5 mph - N/A   Clear
12:54 PM 53.1 °F - 35.1 °F 50% 30.24 in 10.0 mi WNW 8.1 mph - N/A   Clear
1:54 PM 55.0 °F - 34.0 °F 45% 30.22 in 10.0 mi WNW 12.7 mph 18.4 mph N/A   Clear
2:54 PM 55.9 °F - 30.0 °F 37% 30.21 in 10.0 mi WNW 17.3 mph - N/A   Mostly Cloudy
3:54 PM 53.1 °F - 34.0 °F 48% 30.23 in 10.0 mi NNW 9.2 mph - N/A   Scattered Clouds
4:54 PM 50.0 °F - 32.0 °F 50% 30.26 in 10.0 mi NW 8.1 mph - N/A   Partly Cloudy
5:54 PM 39.9 °F 35.8 °F 32.0 °F 73% 30.31 in 10.0 mi SW 5.8 mph - N/A   Scattered Clouds
6:54 PM 39.0 °F 32.3 °F 30.9 °F 73% 30.32 in 10.0 mi SW 10.4 mph - N/A   Clear
7:54 PM 39.0 °F 32.3 °F 30.9 °F 73% 30.33 in 10.0 mi WSW 10.4 mph - N/A   Clear
8:54 PM 37.9 °F 33.5 °F 30.0 °F 73% 30.33 in 10.0 mi SW 5.8 mph - N/A   Clear
9:54 PM 35.1 °F 30.1 °F 28.9 °F 78% 30.33 in 10.0 mi SW 5.8 mph - N/A   Clear
10:54 PM 36.0 °F 32.1 °F 28.9 °F 76% 30.31 in 10.0 mi SE 4.6 mph - N/A   Clear
11:54 PM 33.1 °F 27.7 °F 28.9 °F 85% 30.31 in 10.0 mi SE 5.8 mph - N/A   Clear